TimeHST,TemperatureF,Dew PointF,Humidity,Sea Level PressureIn,VisibilityMPH,Wind Direction,Wind SpeedMPH,Gust SpeedMPH,PrecipitationIn,Events,Conditions,WindDirDegrees,DateUTC
12:57 AM,75.7,70.0,82,29.97,10.0,Calm,Calm,-,N/A,,Scattered Clouds,0,2013-08-22 10:57:00
1:57 AM,75.7,71.1,85,29.95,10.0,Calm,Calm,-,0.00,Rain,Light Rain,0,2013-08-22 11:57:00
2:04 AM,75.2,71.6,89,29.96,6.2,Calm,Calm,-,0.00,Rain,Light Rain,0,2013-08-22 12:04:00
2:27 AM,75.2,71.6,89,29.96,6.2,Calm,Calm,-,0.00,,Mostly Cloudy,0,2013-08-22 12:27:00
2:57 AM,75.4,71.1,86,29.94,10.0,ESE,3.5,-,0.00,,Partly Cloudy,110,2013-08-22 12:57:00
3:53 AM,75.2,71.6,89,29.95,6.2,Calm,Calm,-,N/A,,Mostly Cloudy,0,2013-08-22 13:53:00
3:57 AM,74.7,71.1,88,29.94,10.0,ESE,4.6,-,N/A,,Mostly Cloudy,110,2013-08-22 13:57:00
4:57 AM,74.7,71.1,88,29.94,10.0,Calm,Calm,-,N/A,,Partly Cloudy,0,2013-08-22 14:57:00
5:46 AM,75.2,71.6,89,29.96,6.2,Variable,3.5,-,N/A,,Overcast,0,2013-08-22 15:46:00
5:53 AM,75.2,71.6,89,29.96,6.2,Variable,3.5,-,N/A,,Mostly Cloudy,0,2013-08-22 15:53:00
5:57 AM,75.9,71.1,85,29.95,10.0,ENE,3.5,-,N/A,,Mostly Cloudy,70,2013-08-22 15:57:00
6:57 AM,77.0,71.1,82,29.96,10.0,ESE,4.6,-,N/A,,Partly Cloudy,110,2013-08-22 16:57:00
7:57 AM,79.7,71.1,75,29.97,10.0,East,6.9,-,N/A,,Scattered Clouds,100,2013-08-22 17:57:00
8:57 AM,91.9,71.1,50,29.98,10.0,East,8.1,-,N/A,,Mostly Cloudy,90,2013-08-22 18:57:00
9:57 AM,81.5,71.1,70,29.99,10.0,Variable,6.9,-,N/A,,Partly Cloudy,0,2013-08-22 19:57:00
10:57 AM,82.8,70.0,65,29.98,10.0,ESE,5.8,-,N/A,,Scattered Clouds,110,2013-08-22 20:57:00
11:57 AM,84.2,71.1,65,29.97,10.0,SE,5.8,-,N/A,,Clear,130,2013-08-22 21:57:00
12:57 PM,84.2,70.0,62,29.96,10.0,East,8.1,-,N/A,,Clear,100,2013-08-22 22:57:00
1:57 PM,86.0,71.1,61,29.94,10.0,ENE,8.1,-,N/A,,Partly Cloudy,60,2013-08-22 23:57:00
2:57 PM,86.0,71.1,61,29.92,10.0,NE,8.1,-,N/A,,Partly Cloudy,50,2013-08-23 00:57:00
3:57 PM,86.0,72.0,63,29.92,10.0,NE,6.9,-,N/A,,Scattered Clouds,40,2013-08-23 01:57:00
4:57 PM,84.2,72.0,67,29.91,10.0,NE,9.2,-,N/A,,Scattered Clouds,50,2013-08-23 02:57:00
5:57 PM,82.4,71.1,68,29.92,10.0,Variable,3.5,-,N/A,,Partly Cloudy,0,2013-08-23 03:57:00
6:57 PM,80.1,71.1,74,29.94,10.0,Variable,4.6,-,N/A,,Partly Cloudy,0,2013-08-23 04:57:00
7:57 PM,80.4,70.0,70,29.96,10.0,ENE,4.6,-,N/A,,Mostly Cloudy,70,2013-08-23 05:57:00
8:08 PM,84.2,71.6,66,29.98,6.2,East,5.8,-,N/A,,Mostly Cloudy,80,2013-08-23 06:08:00
8:57 PM,78.8,71.1,77,29.98,10.0,ENE,4.6,-,N/A,,Partly Cloudy,60,2013-08-23 06:57:00
9:57 PM,78.8,71.1,77,30.00,10.0,ENE,3.5,-,N/A,,Partly Cloudy,60,2013-08-23 07:57:00
10:57 PM,79.3,70.0,73,30.00,10.0,East,4.6,-,N/A,,Partly Cloudy,80,2013-08-23 08:57:00
11:57 PM,77.5,70.0,77,30.00,10.0,East,3.5,-,N/A,,Partly Cloudy,80,2013-08-23 09:57:00